This is the latest recevied weather packets stored in our database for station/object KE8RXN. If no packets are shown the sender has not sent any weather packets the latest 10 day(s).
| Time | Temp. | Humidity | Pressure | Rain* | Wind** | Luminosity | Snow |
|---|---|---|---|---|---|---|---|
| 1777497332 | 7.22° C | 98% | 1016.2 hPa | 0 mm | - | 92 W/m² | - |
| 1777497028 | 7.22° C | 98% | 1016.1 hPa | 0 mm | - | 85 W/m² | - |
| 1777496725 | 7.22° C | 99% | 1016 hPa | 0 mm | - | 71 W/m² | - |
| 1777496422 | 7.22° C | 99% | 1016.2 hPa | 0 mm | - | 59 W/m² | - |
| 1777496118 | 7.22° C | 99% | 1016.1 hPa | 0 mm | - | 57 W/m² | - |
| 1777495815 | 7.22° C | 99% | 1016.1 hPa | 0 mm | - | 66 W/m² | - |
| 1777495510 | 7.22° C | 99% | 1016 hPa | 0 mm | - | 63 W/m² | - |
| 1777495206 | 7.22° C | 99% | 1016 hPa | 0 mm | - | 58 W/m² | - |
| 1777494904 | 7.78° C | 99% | 1015.8 hPa | 0 mm | - | 52 W/m² | - |
| 1777494601 | 7.22° C | 99% | 1015.8 hPa | 0 mm | - | 62 W/m² | - |
| 1777494298 | 7.22° C | 99% | 1016.1 hPa | 1.78 mm | - | 63 W/m² | - |
| 1777493994 | 7.22° C | 99% | 1016.1 hPa | 1.78 mm | - | 58 W/m² | - |
| 1777493693 | 7.22° C | 99% | 1015.8 hPa | 0 mm | - | 62 W/m² | - |
| 1777493390 | 7.22° C | 99% | 1015.7 hPa | 0 mm | - | 83 W/m² | - |
| 1777493086 | 7.78° C | 99% | 1015.8 hPa | 0 mm | - | 113 W/m² | - |
| 1777492783 | 7.22° C | 99% | 1015.8 hPa | 0 mm | - | 112 W/m² | - |
| 1777492479 | 7.78° C | 99% | 1016 hPa | 1.78 mm | - | 131 W/m² | - |
| 1777492176 | 7.22° C | 99% | 1015.7 hPa | 1.78 mm | - | 135 W/m² | - |
| 1777491872 | 7.22° C | 99% | 1016.1 hPa | 1.78 mm | - | 124 W/m² | - |
| 1777491569 | 7.22° C | 99% | 1016.1 hPa | 0 mm | - | 114 W/m² | - |
| 1777491267 | 7.22° C | 99% | 1016 hPa | 1.27 mm | - | 72 W/m² | - |
| 1777490963 | 7.22° C | 99% | 1016.2 hPa | 3.05 mm | - | 60 W/m² | - |
| 1777490659 | 7.22° C | 99% | 1016.2 hPa | 3.05 mm | - | 55 W/m² | - |
| 1777490355 | 7.22° C | 99% | 1016.1 hPa | 3.05 mm | - | 61 W/m² | - |
| 1777490053 | 7.22° C | 99% | 1016.3 hPa | 3.05 mm | - | 60 W/m² | - |
* Rain latest hour (hover to see other rain measurements)
** Current wind speed in m/s (hover to see current wind gust speed)